Atka, AK

12:47 PM HDT on March 30, 2017 (GMT -0900)
Atka

Weather History for PAAK - October, 2013

Change the Weather History Date:

Thursday, October 3, 2013

  Actual Average (PADK) Record (PADK)
Temperature  
Mean Temperature 45 °F -  
Max Temperature 48 °F 50 °F 62 °F (2007)
Min Temperature 42 °F 41 °F 32 °F (2010)
Degree Days  
Heating Degree Days 20    
Moisture  
Dew Point 38 °F    
Average Humidity 76    
Maximum Humidity 82    
Minimum Humidity 66    
Precipitation  
Precipitation 0.00 in - - ()
Sea Level Pressure  
Sea Level Pressure 30.17 in    
Wind  
Wind Speed 19 mph (WNW)    
Max Wind Speed 29 mph    
Max Gust Speed 37 mph    
Visibility 9 miles    
Events      
Averages and records for this station are not official NWS values.
T = Trace of Precipitation, MM = Missing Value Source: NWS Daily Summary

Daily Weather History Graph

Daily Weather History Graph

Search for Another Location

Airport or City:

Trip Planner

Search our weather history database for the weather conditions in past years. The results will help you decide how hot, cold, wet, or windy it might be!

Date:

Astronomy

Oct. 03, 2013 Rise Set
Actual Time 8:42 AM HDT 8:08 PM HDT
Civil Twilight 8:08 AM HDT 8:41 PM HDT
Nautical Twilight 7:28 AM HDT 9:21 PM HDT
Astronomical Twilight 6:48 AM HDT 10:01 PM HDT
Moon 7:25 AM HDT (10/3) 7:25 PM HDT (10/3)
Length of Visible Light 12h 33m
Length of Day
11h 26m
Waning Crescent, 2% of the Moon is Illuminated
Oct 3
Waning Crescent
Oct 4
New
Oct 11
First Quarter
Oct 18
Full
Oct 26
Last Quarter

Hourly Weather History & Observations

Time (HDT) Temp. Windchill Dew Point Humidity Pressure Visibility Wind Dir Wind Speed Gust Speed Precip Events Conditions
12:16 AM 44.6 °F 36.4 °F 39.2 °F 81% 29.98 in 7.0 mi WNW 20.7 mph 25.3 mph N/A   Overcast
12:36 AM 44.6 °F 37.2 °F 39.2 °F 81% 29.99 in 3.0 mi NW 17.3 mph 23.0 mph N/A   Overcast
12:56 AM 44.6 °F 36.1 °F 37.4 °F 76% 29.99 in 4.0 mi NW 21.9 mph 28.8 mph N/A   Overcast
1:16 AM 44.6 °F 34.9 °F 39.2 °F 81% 29.99 in 10.0 mi NW 28.8 mph 36.8 mph N/A   Overcast
1:36 AM 44.6 °F 35.1 °F 39.2 °F 81% 29.99 in 10.0 mi WNW 27.6 mph 35.7 mph N/A   Overcast
1:56 AM 44.6 °F 36.4 °F 37.4 °F 76% 30.00 in 10.0 mi NW 20.7 mph 35.7 mph N/A   Overcast
2:16 AM 44.6 °F 35.5 °F 39.2 °F 81% 30.00 in 8.0 mi WNW 25.3 mph 33.4 mph N/A   Overcast
2:36 AM 44.6 °F 35.7 °F 39.2 °F 81% 30.01 in 5.0 mi WNW 24.2 mph 33.4 mph N/A   Mostly Cloudy
2:56 AM 44.6 °F 35.9 °F 39.2 °F 81% 30.02 in 10.0 mi NW 23.0 mph 32.2 mph N/A   Overcast
3:16 AM 44.6 °F 35.7 °F 39.2 °F 81% 30.03 in 5.0 mi WNW 24.2 mph 31.1 mph N/A   Overcast
3:36 AM 44.6 °F 35.5 °F 39.2 °F 81% 30.03 in 4.0 mi WNW 25.3 mph 31.1 mph N/A   Overcast
3:56 AM 44.6 °F 35.7 °F 39.2 °F 81% 30.04 in 10.0 mi NW 24.2 mph 31.1 mph N/A   Overcast
4:16 AM 44.6 °F 36.9 °F 39.2 °F 81% 30.04 in 10.0 mi NW 18.4 mph 26.5 mph N/A   Overcast
4:36 AM 44.6 °F 36.9 °F 39.2 °F 81% 30.05 in 10.0 mi WNW 18.4 mph 28.8 mph N/A   Overcast
4:56 AM 44.6 °F 37.2 °F 39.2 °F 81% 30.06 in 10.0 mi NW 17.3 mph 23.0 mph N/A   Mostly Cloudy
5:16 AM 44.6 °F 37.4 °F 35.6 °F 71% 30.06 in 10.0 mi NW 16.1 mph 23.0 mph N/A   Mostly Cloudy
5:36 AM 44.6 °F 37.4 °F 35.6 °F 71% 30.07 in 10.0 mi NW 16.1 mph 25.3 mph N/A   Mostly Cloudy
5:56 AM 44.6 °F 38.4 °F 35.6 °F 71% 30.08 in 10.0 mi NW 12.7 mph 20.7 mph N/A   Mostly Cloudy
6:16 AM 42.8 °F 36.2 °F 33.8 °F 70% 30.09 in 10.0 mi NW 12.7 mph - N/A   Scattered Clouds
6:36 AM 44.6 °F 38.4 °F 33.8 °F 66% 30.10 in 10.0 mi NW 12.7 mph - N/A   Partly Cloudy
6:56 AM 44.6 °F 37.8 °F 35.6 °F 71% 30.10 in 10.0 mi NNW 15.0 mph 18.4 mph N/A   Partly Cloudy
7:16 AM 44.6 °F 39.2 °F 35.6 °F 71% 30.11 in 10.0 mi NW 10.4 mph - N/A   Mostly Cloudy
7:36 AM 44.6 °F 38.4 °F 35.6 °F 71% 30.12 in 10.0 mi NW 12.7 mph 23.0 mph N/A   Mostly Cloudy
7:56 AM 44.6 °F 37.2 °F 39.2 °F 81% 30.12 in 10.0 mi WNW 17.3 mph 23.0 mph N/A   Mostly Cloudy
8:16 AM 44.6 °F 37.2 °F 39.2 °F 81% 30.13 in 9.0 mi NW 17.3 mph 23.0 mph N/A   Overcast
8:36 AM 44.6 °F 36.9 °F 37.4 °F 76% 30.14 in 9.0 mi NW 18.4 mph 25.3 mph N/A   Overcast
8:56 AM 44.6 °F 36.4 °F 39.2 °F 81% 30.15 in 7.0 mi NW 20.7 mph 26.5 mph N/A   Mostly Cloudy
9:16 AM 44.6 °F 37.8 °F 39.2 °F 81% 30.15 in 3.0 mi NW 15.0 mph 27.6 mph N/A   Mostly Cloudy
9:36 AM 44.6 °F 36.9 °F 39.2 °F 81% 30.16 in 7.0 mi WNW 18.4 mph 27.6 mph N/A   Overcast
9:56 AM 46.4 °F 38.7 °F 39.2 °F 76% 30.17 in 9.0 mi WNW 20.7 mph 26.5 mph N/A   Mostly Cloudy
10:16 AM 44.6 °F 36.6 °F 39.2 °F 81% 30.17 in 8.0 mi WNW 19.6 mph 27.6 mph N/A   Overcast
10:36 AM 46.4 °F 39.0 °F 39.2 °F 76% 30.18 in 10.0 mi WNW 19.6 mph 26.5 mph N/A   Overcast
10:56 AM 46.4 °F 38.7 °F 41.0 °F 81% 30.19 in 10.0 mi WNW 20.7 mph 24.2 mph N/A   Mostly Cloudy
11:16 AM 46.4 °F 39.2 °F 41.0 °F 81% 30.20 in 10.0 mi WNW 18.4 mph 25.3 mph N/A   Mostly Cloudy
11:36 AM 46.4 °F 38.7 °F 39.2 °F 76% 30.21 in 6.0 mi WNW 20.7 mph 25.3 mph N/A   Overcast
11:56 AM 46.4 °F 39.0 °F 39.2 °F 76% 30.21 in 10.0 mi NW 19.6 mph 26.5 mph N/A   Overcast
12:16 PM 48.2 °F - 42.8 °F 82% 30.21 in 10.0 mi WNW 21.9 mph 25.3 mph N/A   Mostly Cloudy
12:36 PM 46.4 °F 39.0 °F 39.2 °F 76% 30.22 in 6.0 mi WNW 19.6 mph 27.6 mph N/A   Overcast
12:56 PM 46.4 °F 39.2 °F 39.2 °F 76% 30.22 in 10.0 mi WNW 18.4 mph - N/A   Overcast
1:16 PM 46.4 °F 39.0 °F 41.0 °F 81% 30.23 in 3.0 mi WNW 19.6 mph 28.8 mph N/A   Mostly Cloudy
1:36 PM 46.4 °F 38.7 °F 41.0 °F 81% 30.24 in 10.0 mi WNW 20.7 mph 26.5 mph N/A   Mostly Cloudy
1:56 PM 48.2 °F - 39.2 °F 71% 30.24 in 10.0 mi WNW 21.9 mph 27.6 mph N/A   Overcast
2:16 PM 46.4 °F 40.4 °F 41.0 °F 81% 30.24 in 9.0 mi WNW 13.8 mph 27.6 mph N/A   Overcast
2:36 PM 48.2 °F - 41.0 °F 76% 30.24 in 10.0 mi NW 19.6 mph 27.6 mph N/A   Overcast
2:56 PM 46.4 °F 39.5 °F 41.0 °F 81% 30.25 in 7.0 mi WNW 17.3 mph 23.0 mph N/A   Overcast
3:16 PM 46.4 °F 39.0 °F 41.0 °F 81% 30.24 in 8.0 mi WNW 19.6 mph 28.8 mph N/A   Mostly Cloudy
3:36 PM 46.4 °F 39.2 °F 41.0 °F 81% 30.24 in 10.0 mi WNW 18.4 mph 26.5 mph N/A   Overcast
3:56 PM 46.4 °F 39.5 °F 39.2 °F 76% 30.25 in 10.0 mi WNW 17.3 mph 24.2 mph N/A   Overcast
4:16 PM 46.4 °F 40.1 °F 39.2 °F 76% 30.25 in 10.0 mi WNW 15.0 mph 24.2 mph N/A   Overcast
4:36 PM 46.4 °F 40.4 °F 39.2 °F 76% 30.25 in 10.0 mi WNW 13.8 mph 21.9 mph N/A   Mostly Cloudy
4:56 PM 44.6 °F 36.6 °F 39.2 °F 81% 30.25 in 5.0 mi WNW 19.6 mph 26.5 mph N/A   Overcast
5:16 PM 46.4 °F 40.4 °F 39.2 °F 76% 30.25 in 10.0 mi WNW 13.8 mph 21.9 mph N/A   Overcast
5:36 PM 46.4 °F 40.1 °F 39.2 °F 76% 30.26 in 10.0 mi WNW 15.0 mph - N/A   Overcast
5:56 PM 46.4 °F 40.1 °F 37.4 °F 71% 30.26 in 10.0 mi WNW 15.0 mph 23.0 mph N/A   Overcast
6:16 PM 46.4 °F 39.8 °F 37.4 °F 71% 30.26 in 10.0 mi WNW 16.1 mph 21.9 mph N/A   Overcast
6:36 PM 46.4 °F 40.4 °F 37.4 °F 71% 30.26 in 10.0 mi WNW 13.8 mph 21.9 mph N/A   Overcast
7:36 PM 46.4 °F 41.1 °F 37.4 °F 71% 30.28 in 10.0 mi WNW 11.5 mph - N/A   Overcast
7:56 PM 46.4 °F 40.1 °F 35.6 °F 66% 30.28 in 10.0 mi WNW 15.0 mph 19.6 mph N/A   Overcast
8:16 PM 46.4 °F 41.1 °F 37.4 °F 71% 30.28 in 10.0 mi WNW 11.5 mph - N/A   Overcast
8:36 PM 46.4 °F 41.5 °F 37.4 °F 71% 30.28 in 10.0 mi WNW 10.4 mph - N/A   Overcast
8:56 PM 46.4 °F 41.9 °F 37.4 °F 71% 30.29 in 10.0 mi WNW 9.2 mph - N/A   Overcast
9:16 PM 46.4 °F 41.1 °F 37.4 °F 71% 30.29 in 10.0 mi WNW 11.5 mph 17.3 mph N/A   Overcast
9:36 PM 46.4 °F 41.5 °F 37.4 °F 71% 30.29 in 10.0 mi WNW 10.4 mph - N/A   Overcast
9:56 PM 46.4 °F 41.9 °F 37.4 °F 71% 30.28 in 10.0 mi WNW 9.2 mph - N/A   Overcast
10:16 PM 46.4 °F 41.1 °F 35.6 °F 66% 30.29 in 10.0 mi WNW 11.5 mph - N/A   Overcast
10:36 PM 44.6 °F 38.8 °F 35.6 °F 71% 30.30 in 10.0 mi WNW 11.5 mph - N/A   Overcast
10:56 PM 46.4 °F 40.4 °F 35.6 °F 66% 30.30 in 10.0 mi WNW 13.8 mph 18.4 mph N/A   Overcast
11:16 PM 46.4 °F 40.4 °F 35.6 °F 66% 30.30 in 10.0 mi WNW 13.8 mph - N/A   Overcast
11:36 PM 46.4 °F 41.1 °F 35.6 °F 66% 30.31 in 10.0 mi WNW 11.5 mph 18.4 mph N/A   Overcast
11:56 PM 46.4 °F 41.9 °F 35.6 °F 66% 30.30 in 10.0 mi WNW 9.2 mph - N/A   Overcast